Location: Carrières
(48.9495°N, 2.0407°E)
Time: 17:55:47
(UTC+00:00)

Altair - Pass Details

Date: 26 April 2024
Orbit: 1502 x 1682 km, 47.2° (Epoch: 21 May)

Event Time Altitude Azimuth Distance (km) Brightness Sun altitude
Rises 21:06:02 0° 279° (W) 4,907 11.0 -17.5°
Reaches altitude 10° 21:09:13 10° 278° (W) 3,902 10.3 -17.9°
Maximum altitude 21:19:09 74° 196° (SSW) 1,668 7.5 -18.9°
Enters shadow 21:25:44 23° 116° (ESE) 2,867 8.4 -19.6°
